Le nostre stazioni meteo in Italia

Pubblicità
Il mio iltempo24.it
Venezia/Tessera, Italia (16105): Temperatura & dewpoint: 12.03.2019 20:00:00 - 18.03.2019 20:00:00 (CET)Venezia/Tessera, Italia (16105): velocità del vento: 12.03.2019 20:00:00 - 18.03.2019 20:00:00 (CET)Venezia/Tessera, Italia (16105): direzione del vento: 12.03.2019 20:00:00 - 18.03.2019 20:00:00 (CET)Venezia/Tessera, Italia (16105): reduced air pressure: 12.03.2019 20:00:00 - 18.03.2019 20:00:00 (CET)Venezia/Tessera, Italia (16105): visibility: 12.03.2019 20:00:00 - 18.03.2019 20:00:00 (CET)Venezia/Tessera, Italia (16105): precipitazioni: 12.03.2019 20:00:00 - 18.03.2019 20:00:00 (CET)
Data & Tempo tt [°C] td [°C] ff [km/h] ff [kn] dd ppp [hPa] vv [km] rr [mm]
18.03.2019 20:00:00 9,0 3,0 24 13 E - 10 -
18.03.2019 19:00:00 8,1 3,9 26 14 ENE 1018,0 10 -
18.03.2019 18:00:00 9,0 4,0 28 15 ENE - 10 -
18.03.2019 17:00:00 8,0 5,0 34 18 ENE - 10 -
18.03.2019 16:00:00 7,7 4,1 39 21 ENE 1016,1 10 0,0
18.03.2019 15:00:00 8,0 4,0 44 24 NE - 10 -
18.03.2019 14:00:00 7,0 4,0 39 21 NE - 10 -
18.03.2019 13:00:00 7,6 5,1 28 15 NNE 1016,2 10 -
18.03.2019 12:00:00 8,0 7,0 21 11 N - 10 -
18.03.2019 11:00:00 7,0 6,0 22 12 N - 8 -
18.03.2019 10:00:00 8,1 6,1 24 13 N 1013,3 10 0,0
18.03.2019 09:00:00 12,0 8,0 8 4 O - 10 -
18.03.2019 08:00:00 11,0 9,0 5 3 SSE - 10 -
18.03.2019 07:00:00 11,2 8,6 9 5 SE 1010,1 10 -
18.03.2019 06:00:00 10,0 10,0 5 3 E - 5 -
18.03.2019 05:00:00 11,0 10,0 2 1 - - 4,0 -
18.03.2019 04:00:00 10,7 10,1 2 1 - 1009,3 3,0 0,0
18.03.2019 03:00:00 11,0 10,0 11 6 NNE - 6 -
18.03.2019 02:00:00 11,0 10,0 11 6 NNE - 8 -
18.03.2019 01:00:00 11,9 10,9 8 4 ENE 1010,4 10 -
18.03.2019 00:00:00 12,0 11,0 4 2 - - 10 -
17.03.2019 23:00:00 12,0 11,0 5 3 E - 10 -
17.03.2019 22:00:00 12,0 11,2 5 3 SSE 1011,4 10 0,0
17.03.2019 21:00:00 12,0 11,0 8 4 SSE - 10 -
17.03.2019 20:00:00 12,0 9,0 8 4 SE - 10 -
17.03.2019 19:00:00 12,2 8,6 8 4 SSE 1012,2 10 -
17.03.2019 18:00:00 11,0 10,0 11 6 SE - 5 -
17.03.2019 17:00:00 12,0 10,0 11 6 SE - 6 -
17.03.2019 16:00:00 12,5 10,3 15 8 SE 1013,0 8 0,0
17.03.2019 15:00:00 14,0 10,0 9 5 ESE - 10 -
17.03.2019 14:00:00 14,0 10,0 11 6 ESE - 10 -
17.03.2019 13:00:00 13,4 10,4 9 5 ENE 1015,0 10 -
17.03.2019 12:00:00 13,0 11,0 9 5 ESE - 10 -
17.03.2019 11:00:00 14,0 10,0 15 8 NNE - 10 -
17.03.2019 10:00:00 12,5 10,3 15 8 NNE 1016,3 10 0,0
17.03.2019 09:00:00 11,0 9,0 11 6 NNO - 7 -
17.03.2019 08:00:00 9,0 7,0 9 5 NO - 7 -
17.03.2019 07:00:00 7,8 6,5 11 6 NNO 1015,4 7 -
17.03.2019 06:00:00 8,0 7,0 9 5 NNO - 7 -
17.03.2019 05:00:00 8,0 6,0 13 7 N - 7 -
17.03.2019 04:00:00 7,5 6,5 11 6 N 1015,3 6 0,0
17.03.2019 03:00:00 - - - - - - - -
17.03.2019 02:00:00 7,0 7,0 11 6 N - 6 -
17.03.2019 01:00:00 7,2 6,7 11 6 N 1016,0 7 -
17.03.2019 00:00:00 8,0 7,0 13 7 NNE - 10 -
16.03.2019 23:00:00 8,0 7,0 13 7 NNE - 10 -
16.03.2019 22:00:00 8,6 7,6 9 5 NNO 1015,9 10 0,0
16.03.2019 21:00:00 11,0 9,0 4 2 ENE - 10 -
16.03.2019 20:00:00 11,0 10,0 9 5 SE - 10 -
16.03.2019 19:00:00 11,0 8,5 5 3 SSE 1014,9 10 -
16.03.2019 18:00:00 13,0 9,0 9 5 SE - 10 -
16.03.2019 17:00:00 14,0 8,0 11 6 SSE - 10 -
16.03.2019 16:00:00 14,8 7,9 9 5 SSE 1013,7 10 0,0
16.03.2019 15:00:00 15,0 7,0 8 4 SSE - 10 -
16.03.2019 14:00:00 15,0 7,0 4 2 - - 10 -
16.03.2019 13:00:00 14,8 6,5 5 3 ENE 1015,1 10 -
16.03.2019 12:00:00 13,0 6,0 8 4 E - 10 -
16.03.2019 11:00:00 12,0 7,0 5 3 E - 10 -
16.03.2019 10:00:00 11,3 6,7 8 4 NE 1015,2 9 0,0
16.03.2019 09:00:00 8,0 5,0 8 4 NE - 7 -
16.03.2019 08:00:00 7,0 4,0 8 4 N - 7 -
16.03.2019 07:00:00 4,9 3,3 11 6 N 1013,5 3,5 -
16.03.2019 06:00:00 5,0 4,0 9 5 N - 3,0 -
16.03.2019 05:00:00 5,0 5,0 9 5 N - 3,0 -
16.03.2019 04:00:00 5,2 4,5 11 6 N 1012,6 4,0 0,0
16.03.2019 03:00:00 5,0 4,0 9 5 N - 4,0 -
16.03.2019 02:00:00 6,0 5,0 11 6 NNE - 5 -
16.03.2019 01:00:00 5,8 4,7 11 6 NNE 1013,3 7 -
16.03.2019 00:00:00 7,0 6,0 13 7 NNE - 7 -
15.03.2019 23:00:00 8,0 6,0 8 4 N - 10 -
15.03.2019 22:00:00 8,4 7,0 5 3 SE 1012,8 10 0,0
15.03.2019 21:00:00 9,0 6,0 4 2 S - 10 -
15.03.2019 20:00:00 9,0 7,0 4 2 S - 10 -
15.03.2019 19:00:00 9,8 6,0 8 4 S 1011,5 10 -
15.03.2019 18:00:00 11,0 6,0 9 5 S - 10 -
15.03.2019 17:00:00 12,0 6,0 11 6 SSE - 10 -
15.03.2019 16:00:00 12,5 4,6 11 6 SSE 1010,8 10 0,0
15.03.2019 15:00:00 13,0 5,0 15 8 SE - 9 -
15.03.2019 14:00:00 13,0 5,0 13 7 SE - 10 -
15.03.2019 13:00:00 12,8 5,3 16 9 ESE 1011,3 10 -
15.03.2019 12:00:00 12,0 5,0 9 5 E - 10 -
15.03.2019 11:00:00 12,0 4,0 4 2 - - 10 -
15.03.2019 10:00:00 9,9 4,3 9 5 ONO 1011,4 8 0,0
15.03.2019 09:00:00 7,0 4,0 9 5 NNO - 4,0 -
15.03.2019 08:00:00 5,0 3,0 8 4 NO - 3,0 -
15.03.2019 07:00:00 3,3 2,4 8 4 ONO 1010,1 3,0 -
15.03.2019 06:00:00 3,0 2,0 9 5 NNO - 6 -
15.03.2019 05:00:00 3,0 2,0 11 6 N - 6 -
15.03.2019 04:00:00 3,4 1,9 11 6 N 1008,4 7 0,0
15.03.2019 03:00:00 3,0 2,0 9 5 NNE - 8 -
15.03.2019 02:00:00 4,0 3,0 16 9 NNE - 8 -
15.03.2019 01:00:00 3,8 2,8 16 9 NNE 1008,0 8 -
15.03.2019 00:00:00 5,0 4,0 15 8 NNE - 10 -
14.03.2019 23:00:00 6,0 5,0 11 6 NE - 10 -
14.03.2019 22:00:00 8,2 6,7 9 5 ENE 1008,5 10 0,0
14.03.2019 21:00:00 8,0 6,0 9 5 ESE - 10 -
14.03.2019 20:00:00 9,0 7,0 13 7 ESE - 9 -
14.03.2019 19:00:00 9,1 5,7 15 8 ESE 1010,0 9 -
14.03.2019 18:00:00 9,0 6,0 15 8 ESE - 8 -
14.03.2019 17:00:00 10,0 6,0 21 11 SE - 8 -
14.03.2019 16:00:00 10,4 5,9 16 9 SE 1010,8 8 0,0
14.03.2019 15:00:00 - - - - - - - -
14.03.2019 14:00:00 11,0 7,0 18 10 SE - 8 -
14.03.2019 13:00:00 10,3 5,8 13 7 SE 1013,7 8 -
14.03.2019 12:00:00 10,0 4,0 11 6 SSE - 9 -
14.03.2019 11:00:00 9,0 3,0 8 4 S - 10 -
14.03.2019 10:00:00 8,4 2,9 4 2 - 1015,1 10 0,0
14.03.2019 09:00:00 7,0 2,0 4 2 - - 10 -
14.03.2019 08:00:00 4,0 2,0 2 1 - - 9 -
14.03.2019 07:00:00 2,7 0,7 8 4 O 1014,9 10 -
14.03.2019 06:00:00 - - - - - - - -
14.03.2019 05:00:00 - - - - - - - -
14.03.2019 04:00:00 3,1 0,5 15 8 NO 1014,6 10 0,0
14.03.2019 03:00:00 3,0 2,0 5 3 O - 10 -
14.03.2019 02:00:00 3,0 2,0 4 2 - - 10 -
14.03.2019 01:00:00 3,7 1,8 4 2 - 1014,3 10 -
14.03.2019 00:00:00 6,0 2,0 9 5 NO - 10 -
13.03.2019 23:00:00 5,0 2,0 11 6 ONO - 10 -
13.03.2019 22:00:00 5,1 2,5 5 3 ONO 1014,1 10 0,0
13.03.2019 21:00:00 7,0 2,0 2 1 - - 10 -
13.03.2019 20:00:00 8,0 3,0 9 5 SE - 10 -
13.03.2019 19:00:00 8,3 2,8 9 5 SSE 1013,2 10 -
13.03.2019 18:00:00 9,0 3,0 8 4 S - 10 -
13.03.2019 17:00:00 10,0 2,0 8 4 SSE - 10 -
13.03.2019 16:00:00 10,2 0,3 5 3 - 1011,9 10 0,0
13.03.2019 15:00:00 10,0 1,0 4 2 - - 10 -
13.03.2019 14:00:00 9,0 1,0 16 9 S - 10 -
13.03.2019 13:00:00 9,6 3,6 8 4 S 1013,6 10 -
13.03.2019 12:00:00 10,0 3,0 5 3 ESE - 10 -
13.03.2019 11:00:00 10,0 4,0 11 6 E - 10 -
13.03.2019 10:00:00 9,5 3,7 13 7 NNE 1014,1 10 0,0
13.03.2019 09:00:00 6,0 1,0 13 7 NNE - 10 -
13.03.2019 08:00:00 4,0 -1,0 13 7 N - 10 -
13.03.2019 07:00:00 2,0 -1,7 16 9 N 1015,3 10 -
13.03.2019 06:00:00 2,0 -2,0 13 7 N - 10 -
13.03.2019 05:00:00 3,0 -2,0 13 7 NNE - 10 -
13.03.2019 04:00:00 4,9 -1,1 8 4 NE 1016,3 10 0,0
13.03.2019 03:00:00 - - - - - - - -
13.03.2019 02:00:00 5,0 -3,0 9 5 NNE - 10 -
13.03.2019 01:00:00 4,8 -3,1 8 4 NNE 1019,2 10 -
13.03.2019 00:00:00 8,0 -1,0 15 8 SSO - 10 -
12.03.2019 23:00:00 9,0 -1,0 18 10 SSO - 10 -
12.03.2019 22:00:00 8,1 0,1 15 8 SSO 1020,4 10 0,0
12.03.2019 21:00:00 10,0 -1,0 18 10 SSO - 10 -
12.03.2019 20:00:00 11,0 -1,0 18 10 S - 10 -

tt = Temperatura
td = dewpoint
ff = velocità del vento
dd = direzione del vento
ppp = reduced air pressure
vv = visibility
rr = precipitazioni

Stazioni seguenti

WeatherPro
AMSI
MeteoEarth